Preview of NWS' New Version of Forecast
This preview is not operational and should not be used for support decisions.

Regional Weather Roundup (RWR)

Issued by National Weather Service (NWS)

                            
000
ASUS44 KMEG 221110
RWRTN 
TENNESSEE HOURLY STATE WEATHER ROUNDUP
NATIONAL WEATHER SERVICE MEMPHIS TN
600 AM CDT WED MAY 22 2019

TNZ002-004-019-021-049-052-054-088>092-221200-
WEST TENNESSEE
  
CITY           SKY/WX    TMP DP  RH WIND       PRES   REMARKS
MEMPHIS INTL   MOCLDY    76  70  82 S12G21    29.85R                  
NWS MEMPHIS      N/A     76 N/A N/A MISG        N/A                   
JACKSON        MOCLDY    73  67  81 S5        29.89R                  
DYERSBURG      CLOUDY    66  63  90 N3        29.90R                  
SOMERVILLE     PTCLDY    73  68  83 S6        29.86R                  
COVINGTON      CLOUDY    66  64  94 SE5       29.87R                  
UNION CITY     CLOUDY    66  64  94 CALM      29.88R                  
BOLIVAR        CLEAR     73  66  78 S7G15     29.88S                  
PARIS          MOCLDY    66  63  88 NE6       29.88F                  
LEXINGTON      CLEAR     73  66  78 S10       29.89S                  
SELMER         CLEAR     72  66  83 S10       29.90S                  
SAVANNAH       PTCLDY    73  68  83 S10G17    29.92R                  
$$

TNZ008-025-027-028-033-062-065-066-221200-
NORTH MIDDLE TENNESSEE
  
CITY           SKY/WX    TMP DP  RH WIND       PRES   REMARKS
NASHVILLE      MOCLDY    73  62  68 S12       29.96R                  
DICKSON        SUNNY     72  64  78 S9        29.93S                  
PORTLAND       CLEAR     72  63  73 S12       29.94R                  
CLARKSVILLE    FAIR      74  63  68 S8        29.90S                  
LEBANON        PTSUNNY   73  63  68 S8        29.95R                  
SMYRNA         FAIR      71  63  75 S5        29.98R                  
MURFREESBORO   MOSUNNY   72  63  73 S7        29.96R                  
COOKEVILLE     CLEAR     63  61  94 CALM      30.01R                  
LIVINGSTON     SUNNY     72  59  64 VRB6      30.02R                  
CROSSVILLE     FAIR      66  59  78 CALM      30.06R                  
ROCKWOOD       SUNNY     64  59  82 S3        30.05R                  
$$

TNZ061-075-076-078-094-096-097-221200-
SOUTH MIDDLE TENNESSEE
  
CITY           SKY/WX    TMP DP  RH WIND       PRES   REMARKS
LAWRENCEBURG   SUNNY     68  64  88 SE8       29.96S                  
LEWISBURG      SUNNY     70  64  83 S3        29.97R                  
FAYETTEVILLE   CLEAR     70  64  83 S10       30.00R                  
TULLAHOMA      CLEAR     66  61  82 CALM      30.01R                  
WINCHESTER     CLEAR     70  63  78 S8        30.02R                  
MCMINNVILLE    CLEAR     68  59  73 CALM      30.01R                  
COLUMBIA       CLEAR     72  72 100 S6G13     29.93S                  
SHELBYVILLE    CLEAR     70  63  78 S10       29.99R                  
$$

TNZ017-018-042-046-047-221200-
NORTHEAST TENNESSEE
  
CITY           SKY/WX    TMP DP  RH WIND       PRES   REMARKS
TRI CITIES     FAIR      64  55  72 CALM      30.13R                  
ELIZABETHTON   FAIR      68  55  64 E8G15     30.14S                  
GREENEVILLE    SUNNY     64  57  77 CALM      30.10R                  
$$

TNZ012-013-036-069-073-074-221200-
CENTRAL EAST TENNESSEE
  
CITY           SKY/WX    TMP DP  RH WIND       PRES   REMARKS
KNOXVILLE      MOCLDY    64  60  87 CALM      30.04S                  
OAK RIDGE      FAIR      64  59  83 CALM      30.05F                  
DOWNTOWN KNOXV PTCLDY    63  61  94 CALM      30.05S                  
GATLINBURG     CLEAR     61  59  94 CALM      30.05S                  
MORRISTOWN     PTCLDY    64  59  82 CALM      30.06S                  
JACKSBORO      PTCLDY    59  59 100 CALM      30.09R                  
$$

TNZ083-085-099-221200-
SOUTHEAST TENNESSEE
  
CITY           SKY/WX    TMP DP  RH WIND       PRES   REMARKS
CHATTANOOGA    MOCLDY    69  66  90 CALM      30.02S                  
DAYTON         SUNNY     66  64  94 CALM      30.02R                  
$$

SKY/WX REPORTED AS FAIR MEANS FEW OR NO CLOUDS BELOW
12 THOUSAND FEET.